Regional Weather Roundup
Issued by NWS

Home | Current Version | Previous Version | Text Only | Print | Product List | Glossary Off
Versions: 1 2 3 4 5 6 7 8 9 10 11 12 13 14 15 16 17 18 19 20 21 22 23 24 25 26 27 28 29 30 31 32 33 34 35 36 37 38 39 40 41 42 43 44 45 46 47 48 49 50

000
ASUS43 KMKX 161300
RWRWI

WISCONSIN REGIONAL WEATHER ROUNDUP
NATIONAL WEATHER SERVICE MILWAUKEE/SULLIVAN WI
800 AM CDT WED APR 16 2014

NOTE: "FAIR" INDICATES FEW OR NO CLOUDS BELOW 12,000 FEET WITH NO
SIGNIFICANT WEATHER AND/OR OBSTRUCTIONS TO VISIBILITY.

WIZ001-002-006>008-014>016-023>028-161400-
NORTHWEST WISCONSIN

CITY           SKY/WX    TMP DP  RH WIND       PRES   REMARKS
SUPERIOR ARPT  CLOUDY    27  14  57 E9        30.16R WCI  18
ASHLAND        CLOUDY    24  12  60 NE6       30.19R WCI  17
HAYWARD        SNOW      25  21  85 E6        30.13R VSB 1/2 WCI  18
SIREN          LGT SNOW  27  25  94 E8        30.09R WCI  19
RICE LAKE      LGT SNOW  28  25  89 E14       30.12R WCI  16
LADYSMITH      LGT SNOW  27  25  92 SE9       30.15R VSB 3/4 WCI  18
EAU CLAIRE     NOT AVBL
MENOMONIE      CLOUDY    31  21  67 E17       30.07R WCI  19
NEW RICHMOND   LGT SNOW  29  24  79 E18G28    30.02S WCI  17
OSCEOLA        LGT SNOW  29  27  93 E17G26    30.05S VSB 1   WCI  17
$$

WIZ003>005-009-010-017-018-161400-
NORTH CENTRAL WISCONSIN

CITY           SKY/WX    TMP DP  RH WIND       PRES   REMARKS
WOODRUFF       PTSUNNY   22  12  65 SE5       30.17R WCI  15
RHINELANDER    CLOUDY    21  13  71 SE5       30.19R WCI  15
EAGLE RIVER    CLOUDY    19  11  69 CALM      30.18R
LAND O LAKES   PTSUNNY   13  11  90 CALM      30.19R
PHILLIPS       LGT SNOW  25  18  74 SE7       30.15R WCI  17
TOMAHAWK       CLOUDY    24  16  69 CALM      30.18R
MEDFORD        LGT SNOW  25  22  90 SE10      30.15S WCI  14
MERRILL        LGT SNOW  26  17  69 CALM      30.20R
$$

WIZ029-030-035-036-043>047-161400-
CENTRAL WISCONSIN

CITY           SKY/WX    TMP DP  RH WIND       PRES   REMARKS
WAUSAU         LGT SNOW  25  22  88 S10       30.20R VSB 3/4 WCI  15
MOSINEE        NOT AVBL
MARSHFIELD     CLOUDY    28  20  71 SE13      30.16F WCI  17
STEVENS POINT  CLOUDY    25  22  88 E8        30.22S WCI  16
WAUPACA        PTSUNNY   30  25  80 E8        30.25S WCI  23
WAUTOMA        NOT AVBL
WISC RAPIDS    CLOUDY    29  20  69 E10       30.20F WCI  20
CAMP DOUGLAS   NOT AVBL
$$

WIZ011>013-019>022-031-037>040-048>050-161400-
NORTHEAST WISCONSIN

CITY           SKY/WX    TMP DP  RH WIND       PRES   REMARKS
ANTIGO         CLOUDY    22  16  76 SE10      30.21R WCI  11
STURGEON BAY   CLOUDY    30  21  69 S5        30.30R WCI  25
GREEN BAY      CLOUDY    31  25  78 S8        30.29R WCI  23
MANITOWOC      NOT AVBL
APPLETON       LGT SNOW  30  25  80 SE10      30.26R WCI  21
CLINTONVILLE   CLOUDY    30  23  74 S7        30.26R WCI  23
OSHKOSH        CLOUDY    32  26  78 SE10      30.25R WCI  24
$$

WIZ032>034-041-042-053>061-161400-
SOUTHWEST WISCONSIN

CITY           SKY/WX    TMP DP  RH WIND       PRES   REMARKS
LA CROSSE      CLOUDY    37  18  46 SE15      30.08R WCI  28
SPARTA         CLOUDY    32  20  60 E13       30.12F WCI  22
VIROQUA        FAIR      32  20  62 SE17G26   30.08S WCI  21
BOSCOBEL       CLOUDY    37  21  52 VRB3      30.14F
PRAIRIE DU CHI CLOUDY    35  20  53 E13G21    30.10R WCI  27
PLATTEVILLE    FAIR      34  23  64 SE14      30.15R WCI  24
$$

WIZ056-057-062-063-064-067-068-161400-
SOUTH CENTRAL WISCONSIN

CITY           SKY/WX    TMP DP  RH WIND       PRES   REMARKS
BARABOO/DELLS  CLOUDY    32  21  64 SE8       30.18S WCI  25
LONE ROCK      NOT AVBL
WATERTOWN      CLOUDY    31  23  73 SE7       30.24R WCI  24
MADISON        CLOUDY    34  22  61 SE13      30.22R WCI  25
MIDDLETON      CLOUDY    34  21  60 SE12      30.20S WCI  25
MONROE         PTSUNNY   32  24  72 SE12      30.19S WCI  23
JANESVILLE     PTSUNNY   34  27  75 SE13      30.23R WCI  25
$$

WIZ051-052-058>065-066-070>072-161400-
SOUTHEAST WISCONSIN

CITY           SKY/WX    TMP DP  RH WIND       PRES   REMARKS
MILWAUKEE      PTSUNNY   34  22  61 S8        30.29R WCI  27
WAUKESHA       NOT AVBL
MILWAUKEE/TIMM CLOUDY    32  21  64 S6        30.29R WCI  26
RACINE         CLOUDY    35  24  64 S9        30.31R WCI  28
BURLINGTON     MOSUNNY   30  24  77 S5        30.27R WCI  25
KENOSHA        MOSUNNY   33  23  66 S8        30.29R WCI  26
FOND DU LAC    PTSUNNY   32  26  78 SE10      30.26R WCI  24
SHEBOYGAN      CLOUDY    32  27  81 SE10      30.29R WCI  24
WEST BEND      CLOUDY    32  28  86 SE5       30.27R WCI  27
JUNEAU         PTSUNNY   31  23  72 SE9       30.25S WCI  23
$$

LSZ147-162-161400-
LAKE SUPERIOR

STATION/POSITION TIME  TEMP    WIND        PRES    WAVE
                       AIR SEA DIR/SP/G            HT/PER
                 (UTC) (F)     (DEG/KT/KT) (MB)    (FT/S)
DEVILS ISLAND    1200   24        CALM     1023.8R
PORT WING        1240   28     110/  2/  6 1021.7R
SAXON HARBOR     1200           CALM  /  5 1022.0
$$

LMZ867-665-643>646-161400-
LAKE MICHIGAN

STATION/POSITION TIME  TEMP    WIND        PRES    WAVE
                       AIR SEA DIR/SP/G            HT/PER
                 (UTC) (F)     (DEG/KT/KT) (MB)    (FT/S)
NORTHPORT PIER   1200   28     170/  2/  3 1025.7R
SISTER BAY       1223   31        CALM       N/A
KEWAUNEE LAKESHO 1200   27      CALM  /  2 1025.9R
SHEBOYGAN LAKESH 1200   34     150/ 18/ 20 1026.3R
PORT WASHINGTON  1200   35     160/ 11/ 16 1025.7
MILWAUKEE LAKESH 1200   34     180/  5/  6   N/A
KENOSHA   LAKESH 1200   34     190/  7/ 11   N/A
$$

TC  - TEMPERATURE IN CELSIUS
VSB - VISIBILITY IN STATUTE MILES
WCI - WIND CHILL INDEX
HX  - HEAT INDEX




USA.gov is the U.S. government's official web portal to all federal, state and local government web resources and services.